FW3067 Weather Reports


time (UTC)temp
F
wind
direction
speed
knots
gust
knots
rain 1hr
in
rain 24hr
in
rain mn
in
humidity
%
barometer
mb
20260906233056 56 339 5.2 10.4 0.00 0.09 0.06 97 1001.2
20260906231558 56 342 6.1 10.4 0.00 0.09 0.06 97 1001.1
20260906230106 57 4 5.2 8.7 0.00 0.09 0.06 96 1001.2
20260906224557 57 354 5.2 7.8 0.00 0.11 0.06 97 1001.1
20260906223155 57 359 4.3 7.8 0.00 0.11 0.06 97 1001.1
20260906221552 57 346 6.1 12.2 0.00 0.11 0.06 97 1001.1
20260906220052 57 348 4.3 7.8 0.00 0.11 0.06 96 1001.1
20260906214550 57 13 3.5 7.8 0.00 0.12 0.06 96 1001.1
20260906213056 58 26 7.0 12.2 0.00 0.12 0.06 95 1001.0
20260906211550 58 355 6.1 10.4 0.00 0.12 0.06 96 1001.1
20260906210049 58 63 7.8 13.9 0.00 0.12 0.06 95 1001.2
20260906204555 58 26 7.8 14.8 0.00 0.13 0.06 96 1001.0
20260906203048 58 21 10.4 14.8 0.00 0.13 0.06 96 1000.9
20260906201613 57 28 9.6 14.8 0.00 0.13 0.06 97 1000.9
20260906200046 57 19 9.6 19.1 0.00 0.13 0.06 97 1000.8
20260906194555 57 43 13.0 20.9 0.01 0.13 0.06 97 1000.8
20260906193046 57 33 15.6 21.7 0.01 0.13 0.06 98 1000.9
20260906191544 57 22 13.9 20.9 0.01 0.13 0.06 98 1000.9
20260906190044 56 49 16.5 21.7 0.01 0.13 0.06 98 1000.8
20260906184543 57 26 15.6 24.3 0.00 0.12 0.05 97 1000.9
20260906183050 57 30 12.2 22.6 0.00 0.12 0.05 97 1000.9
20260906181548 57 78 15.6 22.6 0.00 0.12 0.05 97 1001.1
20260906180042 57 34 14.8 22.6 0.01 0.12 0.05 97 1001.1
20260906174544 57 22 14.8 23.5 0.01 0.12 0.05 96 1001.2
20260906173039 57 22 16.5 22.6 0.01 0.12 0.05 97 1001.4
20260906171541 56 29 16.5 23.5 0.01 0.12 0.05 97 1001.5
20260906170038 57 36 16.5 25.2 0.01 0.11 0.04 97 1001.6
20260906164537 57 40 14.8 23.5 0.01 0.12 0.04 97 1001.5
20260906163047 57 52 11.3 24.3 0.01 0.12 0.04 98 1001.5
20260906161545 56 44 18.2 24.3 0.01 0.12 0.04 98 1001.5
20260906160035 57 30 15.6 23.5 0.01 0.11 0.03 97 1001.7
20260906154537 56 32 13.0 23.5 0.01 0.12 0.03 99 1001.6
20260906153033 56 47 13.0 20.9 0.01 0.12 0.03 98 1001.6
20260906151535 56 50 13.9 26.1 0.01 0.12 0.03 98 1001.7
20260906150033 59 36 13.9 23.5 0.00 0.11 0.02 94 1001.7
20260906144531 58 54 14.8 26.1 0.00 0.12 0.02 94 1001.6
20260906143030 58 49 15.6 25.2 0.00 0.12 0.02 95 1001.8
20260906141530 59 44 13.0 24.3 0.00 0.12 0.02 95 1001.7
20260906140036 57 48 13.9 26.9 0.00 0.12 0.02 97 1001.9
20260906134527 58 21 11.3 22.6 0.00 0.12 0.02 95 1001.8
20260906133036 58 44 19.1 28.7 0.00 0.12 0.02 93 1001.9
20260906131524 57 29 15.6 26.1 0.01 0.12 0.02 96 1001.7
20260906130021 57 37 16.5 29.5 0.01 0.12 0.02 97 1001.7
20260906124521 56 45 20.9 33.9 0.01 0.13 0.02 98 1001.6
20260906123033 55 40 15.6 26.1 0.00 0.12 0.02 99 1001.5
20260906121516 55 48 16.5 27.8 0.01 0.12 0.02 99 1001.5
20260906120015 56 43 16.5 28.7 0.01 0.12 0.02 97 1001.4
20260906114520 55 9 19.1 30.4 0.01 0.17 0.02 97 1001.4
20260906113013 56 31 16.5 26.9 0.01 0.17 0.02 97 1001.6
20260906111511 56 22 16.5 24.3 0.00 0.16 0.01 97 1001.5
20260906110009 56 57 16.5 27.8 0.00 0.28 0.01 98 1001.4
20260906104506 56 38 20.0 30.4 0.00 0.28 0.01 99 1001.3
20260906103006 56 28 19.1 32.2 0.00 0.28 0.01 98 1001.1
20260906101505 56 46 22.6 32.2 0.00 0.28 0.01 98 1001.1
20260906100003 56 82 20.9 33.9 0.00 0.46 0.01 98 1001.0
20260906094502 56 70 19.1 34.8 0.00 0.46 0.01 98 1000.9
20260906093003 56 76 20.9 31.3 0.00 0.46 0.01 99 1000.9
20260906091603 56 42 15.6 30.4 0.00 0.46 0.01 99 1000.8
20260906090113 56 69 18.2 33.9 0.00 0.46 0.01 99 1000.7
20260906084608 56 57 21.7 33.0 0.00 0.72 0.01 99 1000.6
20260906083056 56 53 19.1 28.7 0.00 0.72 0.01 100 1000.6
20260906081557 56 78 19.1 28.7 0.00 0.72 0.01 100 1000.6
20260906080056 56 40 19.1 32.2 0.00 0.72 0.01 100 1000.5
20260906074603 56 50 17.4 33.0 0.00 1.13 0.01 100 1000.6
20260906073058 56 60 20.0 31.3 0.00 1.13 0.01 100 1000.5
20260906071552 56 48 19.1 28.7 0.00 1.13 0.01 100 1000.3
20260906070109 56 50 18.2 27.8 0.00 1.13 0.01 100 1000.4
20260906064551 57 43 19.1 33.0 0.00 2.04 0.01 100 1000.3
20260906063049 57 27 20.9 32.2 0.00 2.04 0.01 100 1000.2
20260906061601 57 53 20.0 33.0 0.00 2.04 0.01 100 1000.3
20260906060048 57 40 19.1 32.2 0.00 2.04 0.01 100 1000.5
20260906054546 57 48 19.1 33.0 0.00 2.86 0.01 100 1000.4
20260906053050 57 37 19.1 29.5 0.00 2.86 0.01 100 1000.6
20260906051544 56 34 24.3 33.9 0.00 2.86 0.01 100 1000.5
20260906050104 56 53 24.3 33.9 0.01 2.86 0.01 100 1000.5
20260906044541 56 31 20.0 32.2 0.01 3.30 0.01 100 1000.7
20260906043048 57 64 20.9 34.8 0.01 3.30 0.01 100 1000.7
20260906041538 56 45 21.7 33.0 0.01 3.30 0.01 100 1000.5
20260906040043 56 29 16.5 31.3 0.00 3.29 0.00 100 1000.8
20260906034535 56 61 20.0 35.6 0.00 3.56 0.00 100 1001.0
20260906033033 56 72 20.9 34.8 0.00 3.56 0.00 100 1001.1
20260906031531 56 44 20.0 32.2 0.01 3.56 0.00 100 1001.3
20260906030030 56 56 22.6 34.8 0.01 3.56 0.00 100 1001.4
20260906024530 56 53 22.6 34.8 0.01 3.82 3.56 100 1001.2
20260906023029 56 60 22.6 34.8 0.02 3.82 3.56 100 1001.2
20260906021528 56 46 22.6 36.5 0.01 3.81 3.55 100 1001.2
20260906020027 56 69 21.7 36.5 0.01 3.81 3.55 100 1001.5
20260906014540 56 68 23.5 35.6 0.02 3.96 3.55 100 1001.5
20260906013025 57 69 23.5 35.6 0.02 3.95 3.54 100 1001.7
20260906011526 56 73 21.7 33.9 0.02 3.95 3.54 100 1001.7
20260906010024 56 57 23.5 34.8 0.02 3.95 3.54 100 1001.5
20260906004522 56 19 21.7 32.2 0.01 4.26 3.54 100 1001.5
20260906003022 57 61 22.6 35.6 0.01 4.25 3.53 100 1001.7
20260906001521 57 20 17.4 30.4 0.01 4.25 3.53 100 1001.8
20260906000020 57 61 20.0 38.2 0.01 4.25 3.53 100 1001.8
20260905234621 57 56 25.2 39.1 0.01 4.28 3.53 100 1001.6